Wind_Speed
10 10 10 10 10 10 10 10 10 10 10 9 9 9 9 8 8 8 7 6 6 7 8 11 13 15 16 15 13 10 8 7 5 5 4 1 4 8 9 12 15 14 14 13 12 12 12 13 13 13 11 10 10 10 9 8 7 5 5 5 3 3 2 2 4 3 12 10 7 8 5 7 8 5 7 6 7 9 8 7 6 6 6 7 7 7 8 7
10 10 10 10 10 10 11 11 11 11 10 10 10 9 9 9 8 8 8 7 7 6 7 8 9 13 15 16 15 12 10 8 7 7 4 2 6 11 11 10 11 13 14 13 14 14 14 15 14 14 12 12 11 10 10 9 8 5 4 5 4 3 3 1 3 1 10 13 10 11 7 6 8 7 7 6 6 8 8 7 6 7 7 7 8 8 8 8
10 10 10 11 11 11 11 11 12 12 12 11 11 10 10 9 9 8 8 8 8 7 7 7 7 9 11 15 16 14 12 9 9 10 8 6 8 11 11 9 8 12 14 14 15 15 16 16 16 15 13 13 13 12 11 9 9 6 4 6 4 3 4 1 2 2 8 13 12 11 10 7 8 10 8 6 5 5 5 5 6 7 7 6 8 9 9 9
10 10 10 10 11 11 11 11 12 12 12 12 12 11 11 11 10 9 8 8 8 8 8 7 7 7 7 10 13 15 13 11 13 12 10 9 8 10 11 9 8 11 14 15 15 16 17 17 17 17 14 13 13 13 11 10 11 7 5 7 4 3 5 2 1 4 6 10 11 10 11 9 8 11 10 8 8 5 1 3 6 6 7 7 7 8 9 9
10 10 10 10 10 10 11 11 11 11 12 12 12 11 11 11 11 10 9 9 8 8 8 8 8 7 7 6 8 13 13 13 15 13 11 10 9 10 11 10 10 11 14 15 15 17 18 17 18 18 16 14 13 12 11 11 11 8 5 3 0 2 4 3 2 4 4 7 9 9 10 8 8 12 12 11 11 9 2 3 7 6 7 7 7 8 8 8
10 10 9 9 9 10 10 11 11 11 11 12 12 12 11 11 11 11 10 10 9 9 8 8 8 8 7 6 5 7 11 13 15 14 12 12 12 11 10 10 11 12 13 13 15 18 19 18 18 17 16 15 13 13 14 12 10 8 5 3 2 3 4 5 5 5 6 5 5 7 9 10 8 11 13 13 15 10 1 3 7 6 7 7 8 7 7 8
10 10 10 9 9 10 10 11 11 11 11 11 12 12 11 11 11 11 11 10 9 9 9 9 8 8 8 7 5 4 7 10 14 16 14 14 14 13 11 10 10 12 12 13 16 17 20 20 18 17 17 15 14 14 12 11 11 10 6 3 2 4 6 10 6 6 8 7 7 6 7 10 9 9 11 13 17 12 4 2 7 7 8 7 8 7 7 8
12 12 11 11 11 11 11 12 12 12 12 12 12 12 12 12 11 11 11 10 10 9 9 9 9 8 8 7 6 4 5 8 14 17 15 14 14 14 12 10 10 11 12 14 16 18 21 22 20 19 18 16 17 16 10 10 13 8 2 1 3 5 12 14 9 6 6 7 9 8 6 8 9 6 9 14 17 12 6 2 7 8 8 7 7 8 8 8
14 14 14 14 13 13 13 13 14 14 14 14 13 13 12 12 12 11 11 11 11 10 10 10 9 9 8 8 7 5 5 8 11 13 15 15 15 16 14 12 10 11 12 14 16 19 21 22 22 20 18 19 21 20 12 8 8 2 8 9 10 14 20 15 10 8 6 8 11 10 9 8 7 4 8 14 16 12 6 4 8 9 8 7 7 8 8 8
16 16 16 15 15 15 15 15 15 14 14 15 14 14 14 13 13 12 12 12 11 11 10 10 10 9 9 8 8 7 4 6 9 10 13 15 16 17 16 15 13 12 13 13 15 16 18 20 23 23 23 24 25 23 15 14 13 2 8 12 15 20 22 12 6 9 11 13 11 8 10 8 5 5 9 13 15 11 6 5 9 10 8 8 8 8 8 8
17 17 17 17 17 17 16 16 16 15 15 15 15 15 15 14 14 14 13 13 12 12 11 11 11 10 9 9 9 8 5 5 8 9 10 12 16 18 18 17 15 14 13 13 14 15 17 20 23 26 26 26 25 23 16 16 18 9 1 9 12 19 22 14 11 14 13 14 11 6 8 8 5 9 11 11 14 11 7 7 9 9 9 8 8 8 7 8
19 19 19 18 18 18 18 18 17 17 16 16 16 15 15 15 14 14 14 15 14 13 12 12 12 11 11 11 9 10 8 5 6 8 9 10 12 17 19 19 17 16 14 14 15 16 18 20 23 27 26 25 23 19 15 15 17 14 12 13 15 18 23 22 19 19 13 12 13 8 9 10 6 11 12 6 11 12 8 8 8 8 9 8 7 7 6 7
20 20 20 20 20 20 19 19 18 18 17 17 17 16 16 15 14 15 14 15 15 15 14 13 12 11 12 12 9 11 11 7 6 7 8 9 10 13 18 21 20 18 17 16 16 17 19 21 23 25 24 25 22 17 18 19 18 17 20 22 24 24 22 25 20 16 12 12 15 12 10 12 8 11 12 4 9 13 8 8 8 6 6 7 7 6 6 6
20 20 21 21 21 20 20 20 19 19 19 18 18 18 17 16 16 15 15 15 15 15 15 14 14 12 13 14 10 11 12 9 8 7 7 9 9 10 14 20 22 21 19 18 17 18 19 21 23 24 25 24 21 20 23 23 19 17 19 26 29 28 24 21 16 14 13 14 17 12 11 13 10 12 14 7 9 13 9 7 8 6 5 5 6 6 5 5
20 20 20 20 20 20 20 21 20 20 20 19 19 20 19 18 18 17 17 16 15 16 15 15 14 12 13 15 12 12 13 11 10 9 8 8 9 10 12 16 21 23 22 20 20 19 20 22 23 24 24 23 22 23 25 24 21 16 16 25 28 25 18 11 13 16 11 14 19 13 12 14 11 14 16 11 10 13 10 7 7 7 5 4 5 5 5 5
20 20 20 20 20 20 19 20 20 20 20 20 20 20 20 19 20 19 19 18 17 17 17 15 14 13 13 15 15 14 12 12 13 11 10 9 9 10 11 13 17 21 23 23 22 21 21 22 23 24 23 23 23 23 25 25 24 20 10 18 23 21 13 6 10 15 9 15 20 15 17 17 13 15 18 14 10 13 11 7 7 7 6 5 4 5 5 6
21 21 21 20 21 21 20 21 21 21 21 21 20 21 20 19 20 20 19 18 19 19 19 16 14 15 14 13 15 15 12 12 15 13 11 11 9 10 11 12 14 18 22 25 25 24 23 23 23 24 24 24 22 24 27 26 23 21 12 14 18 17 12 8 10 13 15 20 20 17 18 17 14 15 18 15 10 12 12 7 7 6 7 6 4 5 5 6
22 22 22 22 22 22 21 22 23 23 23 23 22 23 22 20 21 22 20 18 19 21 20 17 14 16 16 12 13 16 13 12 14 15 13 12 11 10 11 13 14 15 19 23 25 26 26 24 24 25 24 23 23 24 25 21 19 20 15 10 10 16 18 17 15 14 16 19 19 18 16 14 14 14 17 16 10 11 12 9 7 6 6 7 5 5 6 7
23 23 23 23 22 22 22 23 24 24 25 26 25 25 24 22 23 23 21 20 21 21 21 18 15 17 18 14 13 16 15 12 15 17 15 14 14 12 12 13 14 15 16 19 22 25 27 27 27 25 23 21 22 22 19 17 17 20 17 8 7 15 18 18 18 17 17 18 20 21 18 17 18 16 18 18 11 10 12 10 8 6 6 7 6 6 7 8
25 26 26 26 25 24 23 23 24 25 26 27 27 27 27 25 26 26 22 22 24 23 22 20 16 17 19 17 15 16 17 14 16 19 17 16 15 14 14 14 14 15 15 16 18 22 26 29 29 24 21 20 20 20 18 18 18 20 21 12 14 14 10 9 12 20 22 21 26 29 24 22 21 18 21 21 14 11 11 11 10 7 6 7 6 6 7 9
27 28 28 29 29 27 26 25 25 25 26 27 27 28 28 27 28 28 25 23 25 26 24 23 19 16 20 21 16 16 18 15 16 19 19 18 17 16 16 15 15 14 15 16 17 20 23 24 25 24 23 21 21 22 21 20 19 20 23 19 18 18 14 7 8 18 25 25 28 31 26 23 21 18 21 23 18 13 11 12 12 9 8 7 6 6 8 9
29 29 30 31 32 31 29 29 29 28 27 27 28 28 28 28 29 30 28 25 25 28 26 25 23 17 20 24 19 18 20 16 16 19 20 20 18 18 17 17 16 15 16 18 18 20 20 17 19 23 25 24 23 24 24 22 21 22 23 24 22 21 20 17 15 19 25 26 26 28 25 24 23 18 21 24 21 15 12 13 13 11 9 7 6 6 7 10
31 31 31 32 34 34 33 32 32 32 31 30 29 29 29 30 30 30 30 26 24 28 29 27 26 20 19 22 23 21 19 17 18 18 20 21 19 19 20 18 18 19 18 18 18 19 17 13 16 22 25 26 26 25 25 25 24 24 24 24 22 21 23 22 17 19 25 27 26 28 27 28 27 21 20 23 22 18 14 13 14 13 11 9 8 7 7 9
35 34 33 34 36 37 36 35 35 34 33 33 31 30 31 32 32 31 30 29 24 25 30 30 27 22 20 24 26 22 17 19 20 19 21 22 20 21 21 20 21 22 19 18 19 19 16 13 16 21 24 27 28 28 27 27 26 25 25 25 23 22 23 25 21 17 23 29 29 29 27 29 30 23 19 22 23 22 18 15 14 13 13 12 9 8 8 9
39 37 35 35 36 38 38 37 36 36 35 34 33 33 35 33 33 32 32 32 25 22 29 32 27 23 24 29 28 24 22 22 21 22 23 22 21 22 21 23 23 22 20 20 20 20 17 15 18 21 23 26 29 31 29 27 27 26 27 27 27 23 21 28 28 19 18 29 32 30 27 27 31 25 19 21 23 24 21 18 17 15 15 14 10 9 9 10
42 40 38 36 36 36 39 39 37 37 36 34 33 35 36 35 35 34 33 34 28 23 28 30 27 25 26 28 28 28 29 23 19 24 24 20 21 22 24 25 23 21 22 22 23 22 18 17 19 21 22 25 28 31 31 29 29 28 26 27 28 27 23 29 29 19 16 26 30 31 28 27 32 28 21 21 23 24 24 21 19 18 18 15 12 11 10 11
43 43 41 39 38 36 39 41 39 39 38 35 35 36 36 36 37 36 35 37 32 28 29 27 27 27 26 27 29 29 29 25 23 25 23 21 21 23 26 26 23 21 22 26 28 22 17 18 21 21 22 24 26 30 31 31 32 28 24 26 28 27 26 30 28 20 17 23 28 33 31 30 35 33 27 28 28 25 25 24 21 21 19 16 15 13 12 12
44 45 44 42 42 40 39 42 43 41 40 38 38 38 38 38 38 37 39 40 36 32 31 29 29 29 29 30 29 28 29 30 28 25 24 27 26 24 27 26 23 22 24 30 29 21 19 21 21 21 22 23 24 27 29 31 33 28 23 27 29 26 28 30 30 26 24 25 27 31 33 33 34 33 30 32 33 29 26 24 23 22 20 17 16 16 14 14
46 46 46 44 45 45 42 44 47 46 44 42 41 42 40 40 39 39 42 43 38 34 35 34 33 32 32 33 31 29 32 33 31 29 30 31 30 27 26 25 26 26 28 31 29 24 23 22 21 23 23 22 22 24 28 31 33 28 24 28 28 28 31 32 32 30 29 33 32 29 34 37 36 34 31 29 29 30 28 25 24 23 21 19 18 18 18 16
47 47 48 47 46 47 46 46 47 48 48 47 45 44 43 43 41 42 45 44 38 38 41 40 38 37 37 36 33 31 31 32 33 36 35 33 33 31 28 27 30 30 30 32 31 27 24 23 25 27 25 22 21 23 26 29 31 28 27 30 30 30 31 33 33 30 31 39 36 30 34 37 38 38 33 28 26 26 28 27 24 23 22 22 21 20 21 20
48 49 49 49 49 48 49 49 48 48 50 50 49 47 46 45 44 46 47 42 39 41 44 42 41 43 42 40 38 36 34 33 34 38 38 34 34 34 31 31 32 32 31 32 31 27 25 28 29 28 25 24 23 24 25 27 29 30 30 31 32 31 30 33 34 32 37 43 37 31 32 33 38 40 34 29 27 27 30 30 27 24 22 24 24 22 22 22
49 50 51 52 51 50 50 52 51 50 50 52 51 50 49 48 49 50 46 41 42 44 44 42 44 45 45 43 42 41 39 37 36 39 40 37 36 36 33 32 32 33 33 31 28 27 28 29 28 28 27 26 26 25 25 27 28 31 32 34 35 34 32 35 38 38 42 43 37 33 35 37 39 40 37 33 29 28 29 30 30 27 24 24 24 22 23 22
53 53 54 54 54 53 53 53 54 53 52 52 53 53 52 53 54 50 45 44 44 44 44 44 46 48 48 46 45 43 42 40 39 40 41 40 39 39 36 34 34 36 34 32 30 30 31 30 30 32 31 28 27 26 26 27 28 31 33 36 39 39 38 39 42 43 44 44 40 34 36 42 41 40 41 37 29 26 27 27 28 28 27 25 23 22 22 21
57 57 57 58 57 57 57 56 56 56 55 54 55 55 55 57 56 50 47 47 45 43 43 45 46 49 51 49 47 45 44 42 41 41 43 44 42 41 40 37 37 38 36 34 35 35 33 33 32 33 31 29 28 27 26 26 28 31 32 35 40 42 42 43 43 45 44 42 40 35 37 41 41 41 41 36 30 26 26 27 27 29 29 27 26 24 22 21
59 59 59 60 60 61 60 59 59 59 59 58 57 58 58 58 55 51 49 48 46 44 44 45 47 49 50 51 51 48 45 44 43 42 45 47 45 43 42 39 37 38 38 37 37 36 36 35 32 30 30 30 29 27 26 28 31 31 30 34 37 38 42 44 43 43 41 38 37 37 38 39 36 36 35 33 30 27 27 29 28 30 30 28 28 26 24 25
60 59 60 60 61 61 62 61 61 61 61 61 62 62 60 58 56 54 52 50 49 49 48 48 49 51 51 51 52 52 50 47 45 45 47 48 47 45 44 42 39 39 41 40 37 35 36 35 31 30 31 32 32 29 27 31 32 30 32 34 30 31 39 43 42 40 37 37 40 39 37 35 34 35 32 29 29 28 27 26 26 29 31 30 27 24 24 26
61 60 61 62 62 61 62 62 62 62 62 64 65 64 62 60 59 57 55 54 53 53 53 52 51 52 53 51 50 51 51 51 49 48 50 50 49 47 45 44 42 41 41 40 37 36 36 35 33 32 33 33 32 31 31 33 32 32 34 32 27 31 39 42 42 40 38 42 45 43 39 35 34 35 30 25 26 28 26 23 23 27 31 33 30 24 23 22
65 63 62 63 64 64 63 63 63 63 64 65 65 64 63 63 62 60 58 57 56 57 57 56 54 54 54 54 53 49 47 51 53 50 51 53 52 49 47 46 45 43 41 39 39 37 35 36 35 35 36 34 32 33 36 36 35 33 33 31 31 36 40 42 45 43 43 47 48 46 41 36 36 36 29 23 24 27 25 23 22 22 27 33 31 26 24 21
69 67 65 65 66 66 65 65 64 64 65 65 65 64 63 63 62 61 60 59 58 59 59 58 57 57 56 56 56 52 45 43 48 50 49 53 54 51 49 48 46 45 42 39 39 38 36 37 36 35 35 35 36 39 40 40 37 33 33 34 35 37 38 40 43 45 47 48 48 46 42 38 38 37 30 25 27 28 25 22 21 18 21 29 30 27 24 20
72 70 68 68 68 66 66 66 65 65 65 64 63 63 62 62 61 61 61 61 61 61 62 62 61 60 60 59 58 58 51 42 38 44 46 49 51 50 50 50 48 47 45 42 40 37 37 39 38 35 33 36 41 45 42 40 38 35 36 38 39 39 37 36 38 43 46 48 48 48 48 46 41 36 32 29 30 31 26 23 23 21 21 25 28 27 23 20
75 72 69 68 68 67 67 68 68 68 66 65 64 63 63 62 62 62 62 63 63 63 65 65 65 64 64 63 61 61 60 53 45 39 41 44 45 45 47 50 49 47 45 46 46 41 39 41 41 38 38 40 43 44 42 40 38 35 36 37 38 39 39 38 40 42 43 45 47 47 50 48 39 31 30 30 29 27 25 24 25 25 24 24 24 25 24 22
76 73 68 66 68 70 69 68 68 69 68 66 64 64 64 64 64 64 63 65 65 65 66 66 67 68 67 66 64 60 60 61 57 49 41 41 44 44 43 41 43 45 44 46 48 46 41 40 43 43 41 41 39 38 40 44 41 37 37 37 36 39 42 44 44 42 41 41 43 45 49 47 38 27 20 21 24 23 25 27 27 26 25 23 23 27 28 25
77 73 66 63 66 69 70 68 67 67 67 65 63 63 64 64 66 66 66 66 67 67 69 68 68 69 68 68 66 62 59 62 64 60 53 45 41 42 40 37 36 38 41 42 44 46 44 42 44 45 43 41 38 35 36 42 43 42 41 39 37 39 43 45 44 40 38 39 41 43 46 45 42 36 24 20 24 25 27 30 29 26 23 23 23 25 29 28
75 71 63 59 61 65 67 66 64 63 63 64 64 64 64 64 66 67 67 68 69 69 70 71 70 70 68 66 66 64 62 62 65 65 62 56 45 37 36 38 37 35 37 40 40 41 47 47 46 45 45 45 42 38 36 40 46 48 46 42 41 40 40 42 43 40 40 42 42 43 43 41 39 38 34 27 25 27 29 29 24 22 23 25 23 21 25 28
72 67 59 54 56 60 62 62 60 60 60 62 64 64 64 65 66 69 71 72 73 74 75 75 75 73 69 66 66 67 66 65 66 66 66 65 56 47 43 41 39 36 36 38 38 38 44 50 49 48 51 52 50 48 45 44 47 50 48 45 42 40 39 40 43 44 45 45 43 43 43 38 34 34 34 33 30 32 34 31 25 23 26 27 23 19 22 24
67 63 56 51 51 53 55 55 55 57 58 60 62 64 65 66 68 70 73 75 76 78 79 79 79 77 74 74 73 73 71 70 71 70 69 69 64 58 56 53 46 42 42 40 38 38 42 47 51 52 53 53 51 50 47 43 43 48 49 47 43 40 38 38 42 46 46 45 44 43 41 36 32 32 29 30 34 36 37 36 30 26 27 27 25 21 21 22
60 57 52 49 48 48 49 50 51 53 55 56 58 61 61 63 66 66 68 72 75 77 78 79 79 78 78 79 79 78 76 75 75 75 75 75 73 68 64 60 54 49 49 50 45 42 42 45 50 53 53 50 47 46 47 46 43 44 46 47 46 44 40 39 42 44 44 46 47 44 41 35 34 34 27 23 28 31 30 34 34 27 23 26 29 28 26 26
51 49 47 46 45 43 42 44 45 47 49 50 53 55 54 56 59 62 65 67 70 72 74 76 76 76 77 78 79 80 80 79 78 77 79 78 75 74 70 62 56 52 50 51 53 48 45 47 49 49 48 47 44 44 47 48 44 38 40 44 47 47 44 42 43 40 41 48 47 42 43 39 34 34 30 25 26 26 25 29 34 32 28 28 32 32 31 30
42 41 40 40 40 38 36 37 39 42 44 46 49 50 50 51 52 55 59 61 63 64 65 68 70 71 73 75 78 80 81 82 81 80 80 79 76 75 71 62 57 56 54 50 50 50 49 50 50 48 45 45 45 45 46 47 44 38 37 42 45 47 47 45 44 40 38 41 41 40 47 47 40 35 33 30 27 25 24 28 33 37 37 36 36 34 32 31
31 32 31 32 32 32 32 33 34 38 40 42 44 45 46 48 49 49 51 55 57 57 59 63 65 65 68 70 74 78 81 83 85 84 82 80 78 76 71 65 59 56 56 55 52 53 54 54 53 51 47 45 46 45 45 48 50 45 39 37 39 42 44 43 42 40 38 37 37 39 45 49 46 40 36 37 33 28 27 30 34 38 39 39 39 37 35 33
22 24 25 27 26 25 28 30 30 30 31 33 37 40 42 43 42 44 47 52 54 53 57 63 63 61 63 66 70 75 80 82 83 85 85 82 80 78 75 70 63 56 54 55 57 57 57 58 58 55 54 50 43 39 41 46 51 52 47 40 36 37 37 35 34 36 37 38 38 39 42 43 44 43 40 41 41 36 33 34 36 37 38 39 40 39 38 36
18 20 23 25 23 21 23 25 25 24 24 25 28 33 37 38 37 38 42 47 49 48 51 59 61 59 58 62 66 71 76 80 79 80 85 85 82 80 78 74 68 61 54 50 54 58 56 56 59 60 61 57 45 38 39 39 45 56 59 50 40 36 35 32 30 32 36 37 37 39 40 39 40 44 45 44 46 45 40 37 37 36 35 35 37 41 42 41
Wind_Direction
330 330 332 334 336 339 342 344 346 347 346 343 339 332 326 320 315 313 309 307 306 303 290 273 261 255 255 255 252 247 247 249 260 276 290 336 180 209 215 214 223 220 218 218 205 201 197 194 191 185 181 170 165 158 154 171 165 152 180 170 188 230 189 140 119 230 286 304 319 319 319 301 311 307 270 253 240 252 253 252 252 247 244 244 249 243 238 229
329 330 330 331 331 331 332 333 336 339 342 344 346 344 339 332 324 319 314 310 305 304 302 292 276 260 255 254 253 248 245 244 247 258 266 200 196 221 225 221 225 218 216 217 207 200 196 198 196 193 186 170 162 160 165 175 166 158 180 175 193 244 231 209 87 182 292 310 319 318 324 319 311 306 292 276 245 246 254 254 247 250 255 255 257 253 249 239
327 329 329 330 330 329 329 329 330 330 332 334 339 342 344 344 339 331 321 315 311 305 301 300 295 278 261 255 255 251 244 242 244 244 247 236 221 234 238 232 226 218 217 213 210 202 197 200 197 198 192 176 168 165 172 177 164 159 192 208 216 248 255 272 39 260 278 300 313 315 320 333 311 304 310 304 274 251 253 252 244 248 259 258 257 258 255 247
320 321 323 325 325 327 327 328 328 326 326 326 328 332 337 341 343 343 337 328 319 312 306 300 299 296 281 263 256 254 246 240 245 240 240 244 233 242 247 238 223 217 219 215 210 204 201 201 198 201 199 188 175 169 173 169 159 150 179 209 213 257 286 323 217 255 272 285 300 309 312 328 314 303 308 307 299 295 305 236 245 250 258 259 256 262 258 248
311 313 315 317 319 322 322 324 324 323 322 321 322 324 327 331 336 341 343 341 334 324 316 308 302 298 296 284 264 258 249 240 245 240 235 241 234 238 247 240 226 218 220 218 211 207 206 203 202 202 202 197 181 175 174 162 160 151 138 165 196 305 297 327 245 259 283 281 292 304 312 328 314 302 305 304 295 297 325 235 262 269 260 260 258 263 259 247
305 307 310 314 319 320 320 321 320 320 320 319 319 319 320 322 325 331 336 341 342 337 328 321 313 305 302 298 285 267 254 243 243 241 231 233 233 233 242 241 230 223 221 219 213 210 209 208 207 204 207 204 186 183 177 163 162 156 137 119 13 322 294 322 329 309 301 290 286 297 320 332 319 305 306 304 293 298 45 218 274 286 267 263 261 262 255 247
302 304 307 311 315 318 320 321 320 320 318 317 317 316 317 316 317 320 324 331 336 341 337 333 326 316 313 305 299 284 265 246 238 238 231 228 235 236 239 241 235 231 225 217 215 213 211 212 212 208 212 208 193 196 193 187 181 163 162 157 31 322 315 317 311 300 294 294 288 279 311 320 311 300 296 290 287 308 43 211 276 286 275 273 269 265 253 248
297 299 302 305 308 311 313 315 317 317 317 316 315 314 314 314 313 312 314 318 323 331 333 335 335 327 323 316 308 292 269 249 237 239 237 231 237 241 239 241 237 233 228 218 214 212 213 214 214 213 214 208 200 200 195 204 199 168 127 39 14 322 320 312 286 282 279 285 298 296 310 309 307 295 269 272 281 307 7 276 277 285 282 281 275 269 259 253
292 294 297 299 302 303 305 308 310 312 313 313 312 312 311 311 311 310 308 309 312 317 321 325 330 332 330 323 315 301 273 261 252 247 243 234 235 243 242 241 239 234 230 225 217 213 214 214 215 217 215 211 210 206 189 174 187 57 9 349 340 316 311 299 275 292 278 272 283 287 298 296 315 308 248 271 285 303 337 303 286 290 284 275 271 268 268 264
289 291 293 296 298 300 302 304 306 309 310 309 309 308 309 309 308 307 306 306 306 307 309 312 317 323 326 323 316 312 298 274 271 262 250 237 232 240 244 242 239 237 234 231 226 220 217 215 215 217 216 214 213 214 197 155 154 116 342 327 323 308 303 294 286 297 280 282 273 264 286 282 314 298 259 278 289 304 330 300 289 291 283 268 266 267 272 274
287 289 291 293 296 298 299 301 303 306 307 307 307 307 307 307 305 304 304 303 303 302 302 304 305 309 312 312 312 315 320 288 274 269 260 245 232 233 240 244 239 238 239 235 230 224 219 217 217 218 219 221 220 222 214 170 153 136 258 294 296 288 290 294 312 306 278 275 273 257 273 277 307 287 281 288 286 310 334 294 291 290 283 269 266 267 268 276
286 287 289 291 292 295 296 297 299 300 302 302 303 305 305 305 305 303 301 301 300 299 299 299 301 302 301 302 305 306 311 305 282 274 268 257 240 230 233 241 241 237 238 238 233 226 222 219 221 224 223 225 228 227 218 184 152 142 177 213 233 254 277 285 299 308 283 249 258 263 262 280 302 283 290 291 280 311 332 299 298 288 280 270 267 271 268 275
283 284 285 287 288 290 292 293 294 295 296 296 298 299 300 302 303 302 301 300 298 297 296 296 296 298 296 295 299 297 301 308 294 283 273 267 254 236 230 235 240 239 236 237 236 229 226 223 225 229 230 231 231 220 206 191 176 176 184 198 215 225 249 267 279 302 294 251 253 259 261 283 299 284 293 296 283 309 326 307 306 297 282 266 264 270 269 276
280 280 281 283 284 286 288 289 290 291 291 292 293 294 295 297 298 299 299 298 299 297 295 294 292 295 294 292 293 289 294 300 292 287 278 271 266 252 235 231 236 239 236 234 236 234 229 229 229 230 232 235 235 225 219 218 217 211 197 201 212 213 223 246 264 300 305 263 253 254 261 282 290 277 285 298 294 303 314 311 311 309 288 255 255 259 263 265
278 278 279 279 281 282 284 285 286 287 288 289 289 289 290 292 292 293 294 295 297 296 295 292 290 291 288 289 290 286 290 292 286 284 278 272 267 263 249 236 233 236 237 234 234 236 233 233 234 233 234 235 235 233 236 240 241 244 216 201 206 212 217 227 256 290 300 252 252 260 266 279 284 270 276 291 291 292 300 304 306 309 293 256 247 249 242 243
279 279 279 279 280 281 281 282 283 285 285 285 286 286 286 288 288 288 289 291 293 293 291 289 291 290 283 285 289 287 289 286 281 280 274 270 264 263 260 248 238 234 237 237 233 234 234 236 235 236 236 235 235 234 240 245 245 257 233 179 187 201 204 187 240 267 258 242 255 263 267 271 273 266 271 286 288 286 293 295 300 307 295 272 248 245 227 226
282 281 281 280 280 281 281 281 282 283 282 283 283 283 284 285 285 285 285 288 289 287 285 286 291 289 283 283 284 284 284 279 280 279 271 268 263 260 260 255 247 237 235 237 236 233 233 236 236 237 237 237 237 232 236 241 240 251 237 177 176 181 194 228 261 265 244 247 258 260 266 265 257 255 263 278 288 285 288 288 291 302 297 279 247 238 225 219
287 285 284 283 281 282 282 281 282 282 281 281 280 281 282 282 282 282 283 286 284 281 280 283 287 287 285 282 278 278 277 274 276 275 269 268 264 258 257 256 254 246 239 238 239 237 235 235 235 236 236 237 238 235 239 246 241 244 243 224 200 184 195 226 257 274 250 246 259 265 273 270 259 256 262 275 284 282 284 281 277 289 298 284 254 233 225 217
289 288 287 286 284 283 282 281 281 282 282 281 279 278 278 279 279 278 282 283 279 278 278 279 281 281 281 280 277 275 274 272 271 271 269 267 263 258 254 254 256 253 249 244 242 241 239 237 236 237 240 240 242 244 248 251 246 245 246 235 177 181 184 195 223 253 249 241 257 273 287 287 277 266 264 273 277 276 282 279 272 275 287 283 262 233 223 219
288 289 289 289 288 286 285 283 282 281 281 281 280 278 277 278 276 274 276 278 277 277 277 277 275 277 278 276 274 273 271 266 267 270 271 267 263 259 254 252 253 255 255 251 246 244 243 242 242 242 244 244 244 247 246 242 240 242 240 206 151 173 183 167 213 248 255 255 265 276 283 285 285 271 262 269 270 270 280 280 272 263 268 276 266 240 225 222
285 286 287 288 288 288 288 287 285 283 281 279 280 279 277 276 274 273 271 272 275 275 275 276 273 274 276 271 268 269 268 265 264 268 270 267 265 261 256 253 251 253 255 252 245 243 246 248 248 243 239 239 239 238 238 235 231 233 237 221 187 191 205 206 235 252 259 262 266 272 273 279 288 273 259 266 268 263 268 275 272 261 254 257 265 251 234 231
280 281 282 284 285 286 287 287 287 286 284 282 281 280 279 277 275 274 271 270 273 273 272 274 272 269 270 273 274 267 263 263 259 262 266 267 267 265 260 254 251 250 247 248 249 248 254 258 251 242 236 235 233 231 232 228 225 224 231 234 215 191 189 206 234 256 265 268 265 267 271 278 285 276 262 266 269 264 258 264 266 261 252 245 251 252 243 240
277 277 278 279 280 281 282 283 284 284 284 283 283 283 282 279 276 274 272 270 270 272 272 270 268 269 272 276 272 262 260 265 259 258 262 264 266 264 261 258 254 250 246 251 257 258 262 264 253 243 236 235 233 230 228 223 222 218 219 230 216 182 172 186 212 247 262 269 270 270 274 276 275 272 266 264 267 268 260 255 255 255 255 245 240 246 251 246
277 276 276 276 277 278 278 279 279 279 280 280 282 284 282 278 275 274 273 270 266 270 273 269 265 270 272 266 262 264 269 266 261 258 258 261 262 262 263 261 256 254 252 253 255 258 260 253 247 242 235 235 235 234 229 221 221 215 211 216 205 186 174 173 187 223 253 265 268 268 270 272 273 271 264 261 264 268 265 257 254 256 255 245 234 238 249 249
278 276 275 274 274 276 276 276 276 276 276 276 278 279 277 277 276 274 272 269 263 263 269 270 269 267 264 262 264 271 268 261 261 263 258 257 259 262 263 259 257 259 257 254 252 254 254 245 241 240 235 233 234 235 233 226 222 214 210 211 208 207 190 177 183 197 238 255 257 261 261 263 273 277 269 261 258 261 262 260 259 259 255 246 232 226 239 247
279 277 275 272 271 273 274 274 274 274 273 274 275 274 273 275 275 273 272 269 264 259 263 268 271 266 263 264 265 263 262 261 260 259 258 256 255 259 261 259 259 260 258 257 253 250 248 245 244 241 238 234 234 236 234 229 227 217 210 212 216 223 208 185 186 192 231 252 255 260 258 256 267 274 274 268 260 253 251 252 256 257 254 250 238 225 230 242
279 278 276 273 271 270 272 273 272 272 272 273 273 272 272 272 271 271 272 270 266 261 259 263 267 267 265 264 261 259 262 262 257 256 261 261 254 252 256 258 259 258 259 257 255 253 250 247 246 244 241 238 238 239 234 230 231 223 209 209 215 223 213 190 182 193 232 258 264 267 264 259 262 266 271 276 270 254 244 247 250 248 250 252 247 237 228 230
278 278 276 275 272 270 270 272 272 271 271 272 272 271 271 270 269 269 269 268 267 266 264 263 264 265 265 264 263 262 262 259 258 260 261 259 254 251 254 258 259 256 256 256 257 255 249 246 248 246 243 242 241 242 238 232 234 228 211 209 212 214 212 196 184 190 210 232 249 261 265 263 262 263 269 275 270 254 244 244 243 242 247 251 250 248 239 229
277 277 276 274 273 271 269 270 271 272 271 270 270 269 270 269 269 268 266 265 266 268 267 265 264 265 265 265 263 262 261 261 261 258 255 256 257 255 255 258 257 252 250 255 257 251 247 247 248 247 244 242 240 240 240 236 236 231 216 214 212 209 210 203 198 198 203 217 229 243 257 262 264 266 269 270 263 255 251 245 240 242 245 248 249 249 248 242
276 275 275 273 272 272 271 268 268 270 271 269 268 268 268 268 268 267 265 265 267 267 266 265 266 266 264 263 263 261 261 260 260 257 253 254 256 255 254 253 253 252 250 252 254 251 249 248 245 246 247 244 240 237 239 240 237 230 219 216 215 212 210 210 214 216 211 215 221 235 253 262 264 265 267 263 258 260 259 251 244 244 248 249 248 248 250 250
274 273 273 272 271 271 271 269 267 268 269 269 268 267 266 266 265 264 265 268 269 266 265 265 265 264 262 262 261 259 258 257 258 258 256 253 253 254 252 252 253 255 254 254 256 255 252 250 249 249 248 246 241 236 237 239 235 228 220 216 215 214 213 214 221 228 223 216 214 224 240 253 259 261 260 255 259 266 260 252 248 246 248 247 245 246 250 249
274 273 273 272 271 270 270 270 268 267 266 267 267 266 265 264 262 263 267 270 267 265 264 263 263 262 261 260 259 258 257 257 257 259 259 256 254 253 252 252 255 256 256 257 260 257 252 252 253 251 247 244 242 239 237 237 234 229 220 214 212 211 214 217 217 222 226 223 217 218 226 236 247 256 259 256 260 265 258 254 252 248 245 245 243 243 245 245
276 275 274 273 272 271 270 269 269 267 266 265 265 265 264 263 263 265 267 265 263 263 263 262 261 261 260 258 257 257 257 256 256 258 260 257 255 254 250 249 250 251 252 254 254 251 247 247 246 246 245 241 242 243 241 238 237 233 225 218 214 209 211 218 218 219 225 227 225 225 228 232 237 247 254 257 259 262 260 257 253 248 244 243 241 240 240 242
277 275 274 273 272 271 270 269 268 268 267 265 265 265 264 264 265 267 265 262 260 260 260 260 260 260 261 260 256 255 255 255 255 256 258 257 255 254 251 247 248 251 251 250 251 251 249 247 246 248 251 249 245 243 241 241 240 242 237 226 222 220 218 221 222 222 225 229 233 232 229 232 238 243 248 255 260 262 264 259 250 248 246 239 237 239 237 238
275 274 273 272 271 271 270 269 268 267 267 266 265 264 263 264 267 267 264 262 259 254 252 252 254 257 259 261 260 256 253 251 251 252 254 255 254 254 253 250 249 251 252 250 251 253 255 255 252 251 253 254 249 241 236 237 237 242 243 233 232 236 230 224 225 225 226 231 238 238 236 238 243 245 246 252 256 257 261 261 254 249 249 244 240 239 235 237
274 273 272 271 270 269 268 267 267 265 265 265 264 264 265 265 265 264 262 260 257 253 249 247 249 252 253 255 258 259 256 252 248 247 250 252 253 252 252 251 249 248 250 251 251 252 256 258 255 252 250 250 251 244 234 236 239 239 239 240 244 242 228 222 225 227 226 228 233 236 239 241 243 246 249 249 252 253 255 263 261 250 248 247 245 240 235 240
276 275 274 272 270 268 267 266 265 265 263 263 263 264 264 264 263 262 260 257 255 253 251 248 247 248 249 249 251 255 258 257 252 248 249 249 250 250 251 252 250 248 248 250 249 249 252 255 253 251 248 246 249 248 239 237 239 238 238 241 239 231 224 221 224 227 226 228 232 233 232 235 239 246 250 249 253 256 257 264 266 254 248 249 248 245 240 243
278 278 277 275 272 270 268 267 265 264 263 262 262 262 261 261 260 259 258 256 254 253 252 250 247 245 245 246 246 245 249 255 255 252 249 249 248 248 249 250 250 249 247 247 247 246 245 249 250 248 248 246 243 244 242 237 233 232 236 238 232 229 229 225 223 225 226 228 233 234 232 234 239 242 247 250 251 255 259 265 268 262 253 251 251 248 242 240
281 280 279 277 275 274 271 269 266 264 263 263 262 262 260 259 258 256 255 253 252 251 250 250 248 245 243 244 244 239 235 242 253 254 251 250 249 247 247 248 249 248 245 242 244 244 242 243 245 246 249 249 244 241 240 238 234 228 228 231 230 232 236 233 230 230 229 231 234 234 232 235 238 239 237 237 243 250 254 258 267 274 265 256 255 251 244 240
283 282 280 278 277 275 273 271 268 266 264 263 262 261 259 257 255 253 252 249 247 246 246 246 244 243 242 242 241 239 231 224 237 252 253 251 251 249 246 246 246 248 247 243 240 238 239 240 239 237 239 246 249 247 244 241 238 232 230 232 232 232 234 235 237 235 233 234 237 236 235 235 237 238 233 233 244 253 255 258 266 275 276 268 261 252 242 234
284 283 281 278 276 274 273 271 269 267 265 263 260 258 256 254 253 251 249 248 246 244 244 243 242 241 240 239 238 238 234 224 219 231 246 249 248 246 245 246 247 248 249 248 242 233 231 236 238 232 229 238 247 252 253 251 245 239 235 237 239 238 233 231 237 240 236 237 240 241 242 240 238 241 243 241 245 250 255 263 268 269 269 267 261 256 250 238
284 283 280 277 275 274 272 270 269 267 265 263 260 256 253 251 250 248 246 245 244 242 241 240 241 240 238 236 235 234 233 229 221 215 223 237 242 240 239 242 248 251 251 249 248 243 234 232 238 237 232 234 240 248 255 256 253 246 237 233 235 238 236 233 237 239 237 238 243 244 246 243 233 231 238 231 225 235 249 253 255 260 262 258 257 261 262 255
284 282 278 274 272 273 271 269 268 265 263 261 257 252 250 249 247 246 244 242 241 240 238 237 237 237 237 235 233 229 226 227 226 219 213 218 231 240 241 239 240 247 252 249 246 249 244 232 232 237 236 233 231 235 247 254 255 251 243 233 227 230 235 236 237 236 233 238 241 242 248 248 236 225 219 212 211 225 244 248 247 254 260 259 261 263 261 257
282 280 276 270 269 270 269 267 265 260 258 257 253 249 247 245 244 243 240 239 238 237 236 235 233 233 233 232 229 226 222 221 225 224 216 210 211 220 233 240 235 233 244 248 242 242 246 240 231 230 232 229 222 217 227 242 248 248 247 239 229 227 230 233 234 231 229 235 237 239 249 258 252 235 221 216 215 220 237 250 250 249 256 262 264 258 251 248
280 277 273 267 265 266 266 265 261 257 255 253 250 248 245 241 239 238 236 235 234 233 232 231 231 229 227 225 224 223 221 219 221 222 220 216 209 201 207 222 229 226 231 243 244 236 238 244 240 232 229 228 223 217 219 230 240 245 248 245 238 232 228 228 230 230 232 238 238 240 247 254 258 251 233 223 220 219 225 236 242 246 256 264 264 249 240 239
277 275 270 264 261 261 261 260 258 255 252 249 247 246 244 240 237 235 235 234 232 232 231 230 228 227 225 222 221 221 220 218 218 218 218 217 211 200 197 203 209 214 216 223 235 236 231 237 242 239 235 233 231 226 221 222 234 244 249 250 248 242 234 229 228 231 237 238 235 242 249 243 241 249 245 228 221 219 218 220 230 245 251 252 251 241 230 228
275 273 269 264 260 257 256 256 255 254 253 252 251 249 246 242 238 235 235 236 234 232 233 231 229 228 226 223 221 220 218 216 216 217 216 216 213 207 203 202 201 206 209 206 212 226 231 232 238 241 240 237 234 231 222 217 225 239 247 251 253 249 243 236 234 236 237 233 233 242 247 239 231 233 234 228 226 229 225 219 223 233 239 241 243 239 230 221
272 271 270 267 263 258 256 254 254 253 253 252 252 251 248 244 241 237 235 237 237 235 234 233 231 231 229 225 220 218 217 215 214 215 216 216 217 214 209 203 199 202 206 200 199 212 227 232 235 239 243 240 233 229 225 219 217 227 239 245 247 249 248 244 244 245 238 232 237 244 240 237 234 228 221 219 225 232 237 232 227 222 222 234 242 240 235 227
272 271 270 269 268 265 260 256 253 252 250 249 250 251 249 246 243 239 237 237 237 237 237 234 232 232 231 228 222 218 217 216 214 213 214 214 215 214 207 200 198 200 204 202 197 202 218 228 230 233 240 242 233 224 222 219 212 214 229 239 242 245 249 248 246 247 243 238 241 241 235 234 236 228 216 210 212 222 232 238 236 228 224 230 238 238 236 233
275 273 271 269 270 268 265 260 256 253 251 250 250 250 248 245 242 240 239 238 236 234 234 234 232 230 229 229 226 220 216 216 215 213 212 212 212 212 206 198 198 201 205 206 202 200 209 219 223 224 229 236 236 227 219 215 210 207 215 230 238 241 246 249 248 244 242 241 240 235 232 233 234 229 215 205 204 212 222 227 231 232 229 228 232 234 235 234
278 276 272 268 267 267 266 262 258 256 251 246 248 248 245 242 240 240 239 238 236 232 229 230 229 229 228 225 224 222 217 215 215 213 212 210 209 210 206 198 196 200 203 204 202 201 207 214 219 221 222 226 231 230 224 218 212 208 208 214 226 235 238 244 251 251 243 238 236 234 232 232 231 228 220 209 204 207 214 221 226 230 232 229 227 228 232 233
277 274 272 270 266 263 263 257 253 253 245 238 242 247 243 236 235 240 240 237 237 234 232 230 227 226 228 225 222 221 218 215 214 214 213 211 207 207 205 199 196 198 200 198 198 200 203 210 217 220 220 220 216 216 222 221 214 216 216 210 210 224 236 239 242 248 247 242 236 235 237 236 231 229 226 218 211 207 209 215 220 225 231 232 228 227 229 233
Height
5895 5895 5894 5894 5893 5893 5892 5891 5891 5890 5889 5889 5888 5888 5887 5887 5886 5886 5885 5885 5884 5884 5883 5883 5883 5884 5884 5884 5885 5886 5886 5887 5887 5887 5887 5887 5887 5887 5887 5888 5888 5889 5890 5891 5893 5893 5894 5895 5895 5896 5897 5899 5900 5901 5902 5902 5903 5905 5905 5905 5906 5906 5906 5905 5905 5906 5904 5905 5906 5906 5906 5905 5904 5905 5904 5905 5905 5904 5905 5906 5907 5908 5908 5908 5908 5908 5909 5909
5895 5894 5893 5893 5892 5892 5891 5890 5890 5889 5889 5888 5887 5887 5886 5886 5885 5885 5884 5884 5884 5883 5883 5882 5882 5882 5883 5883 5884 5885 5885 5886 5887 5886 5886 5887 5886 5886 5886 5887 5887 5888 5890 5891 5892 5893 5894 5894 5895 5896 5897 5898 5899 5900 5901 5902 5903 5904 5905 5905 5905 5906 5906 5904 5904 5906 5904 5903 5905 5904 5905 5905 5903 5903 5903 5904 5905 5904 5905 5906 5907 5907 5908 5908 5908 5908 5908 5909
5894 5894 5893 5892 5892 5891 5890 5890 5889 5888 5888 5887 5887 5886 5886 5885 5885 5884 5883 5883 5883 5882 5882 5882 5881 5881 5882 5882 5883 5884 5884 5885 5885 5885 5885 5886 5886 5885 5885 5886 5887 5888 5889 5890 5892 5893 5893 5894 5895 5896 5896 5898 5899 5900 5901 5902 5903 5904 5905 5906 5905 5906 5906 5904 5904 5907 5906 5904 5904 5904 5903 5904 5903 5902 5902 5903 5903 5904 5905 5906 5906 5907 5907 5908 5908 5908 5908 5909
5893 5893 5892 5892 5891 5890 5890 5889 5888 5888 5887 5886 5886 5885 5885 5884 5884 5883 5883 5882 5882 5881 5881 5881 5881 5880 5881 5881 5882 5882 5883 5884 5883 5883 5884 5885 5885 5884 5884 5885 5886 5887 5888 5889 5891 5892 5893 5893 5894 5895 5896 5898 5899 5900 5901 5902 5903 5904 5905 5905 5905 5906 5906 5904 5905 5906 5907 5905 5904 5904 5903 5903 5903 5901 5902 5902 5902 5903 5905 5905 5905 5906 5907 5907 5907 5907 5908 5908
5892 5892 5891 5891 5890 5890 5889 5888 5888 5887 5886 5885 5885 5884 5884 5884 5883 5883 5882 5882 5881 5881 5880 5880 5880 5880 5880 5880 5881 5881 5882 5883 5882 5882 5884 5884 5884 5884 5883 5884 5885 5886 5887 5888 5890 5891 5892 5893 5893 5894 5895 5897 5898 5900 5901 5902 5903 5904 5905 5905 5905 5906 5905 5905 5905 5906 5907 5906 5904 5904 5903 5903 5903 5901 5901 5901 5901 5902 5906 5905 5905 5906 5906 5906 5907 5907 5907 5908
5891 5891 5890 5889 5889 5888 5888 5887 5887 5886 5885 5885 5884 5883 5883 5883 5882 5882 5881 5881 5881 5880 5880 5879 5879 5879 5879 5879 5880 5880 5880 5881 5880 5881 5883 5882 5883 5883 5883 5883 5884 5885 5885 5887 5889 5890 5892 5892 5893 5894 5895 5896 5898 5899 5900 5900 5901 5903 5904 5905 5905 5905 5906 5906 5906 5905 5906 5906 5905 5904 5903 5902 5903 5901 5900 5900 5899 5902 5906 5905 5904 5906 5906 5906 5906 5906 5907 5907
5890 5889 5889 5888 5888 5887 5887 5886 5886 5885 5884 5884 5883 5883 5882 5882 5881 5881 5880 5880 5880 5880 5879 5879 5878 5878 5878 5878 5879 5879 5879 5880 5879 5879 5881 5881 5881 5882 5882 5882 5883 5883 5885 5886 5887 5889 5891 5891 5893 5894 5895 5896 5898 5900 5900 5900 5900 5902 5904 5905 5904 5906 5906 5907 5907 5906 5905 5905 5905 5904 5904 5903 5903 5902 5901 5900 5898 5901 5906 5905 5904 5905 5905 5906 5906 5906 5907 5907
5889 5888 5888 5887 5887 5886 5886 5885 5884 5884 5883 5883 5882 5882 5881 5881 5880 5880 5879 5879 5879 5879 5878 5878 5878 5877 5877 5877 5878 5878 5878 5878 5877 5877 5879 5880 5880 5881 5881 5881 5882 5883 5884 5885 5886 5888 5889 5890 5892 5893 5895 5896 5897 5898 5899 5899 5900 5901 5903 5903 5904 5905 5906 5907 5907 5907 5906 5905 5904 5904 5904 5903 5903 5903 5902 5900 5898 5901 5906 5906 5904 5905 5905 5905 5906 5906 5906 5907
5887 5887 5886 5886 5885 5885 5884 5884 5883 5883 5882 5881 5881 5880 5880 5880 5879 5879 5878 5878 5878 5878 5877 5877 5877 5877 5877 5877 5877 5877 5877 5876 5876 5877 5878 5879 5880 5879 5880 5881 5881 5882 5882 5883 5885 5886 5887 5889 5891 5892 5894 5895 5896 5896 5896 5897 5899 5900 5902 5903 5903 5905 5906 5908 5907 5906 5906 5906 5905 5904 5904 5903 5903 5904 5902 5899 5898 5900 5905 5906 5905 5905 5905 5905 5905 5906 5906 5907
5886 5885 5885 5884 5884 5883 5883 5882 5882 5881 5881 5880 5880 5879 5879 5878 5878 5878 5877 5877 5877 5876 5876 5876 5876 5876 5876 5876 5876 5876 5877 5876 5875 5876 5876 5877 5878 5878 5879 5879 5880 5881 5881 5882 5883 5885 5886 5888 5890 5891 5892 5893 5894 5895 5895 5895 5897 5900 5903 5903 5903 5904 5906 5907 5907 5907 5907 5906 5905 5905 5903 5902 5903 5904 5902 5900 5899 5901 5905 5906 5904 5904 5905 5905 5905 5905 5906 5907
5884 5883 5883 5883 5882 5882 5881 5881 5880 5880 5879 5879 5878 5878 5877 5877 5877 5876 5876 5875 5875 5875 5875 5875 5875 5875 5875 5874 5874 5875 5876 5876 5875 5875 5875 5875 5876 5877 5877 5878 5879 5880 5880 5881 5882 5883 5885 5887 5888 5888 5889 5891 5892 5895 5895 5895 5896 5899 5903 5905 5905 5905 5906 5906 5906 5907 5907 5905 5904 5905 5903 5902 5903 5903 5902 5901 5899 5900 5904 5905 5905 5904 5904 5904 5905 5905 5906 5906
5882 5881 5881 5881 5880 5880 5880 5879 5879 5878 5878 5877 5877 5876 5876 5876 5875 5875 5874 5874 5874 5874 5874 5874 5874 5874 5874 5873 5873 5873 5874 5875 5874 5874 5874 5874 5875 5875 5876 5876 5877 5878 5879 5880 5880 5882 5883 5885 5885 5885 5887 5888 5890 5894 5896 5895 5896 5897 5900 5904 5907 5908 5907 5905 5905 5906 5906 5905 5903 5904 5903 5902 5903 5903 5902 5902 5899 5899 5902 5904 5905 5905 5904 5903 5904 5905 5905 5906
5879 5879 5879 5879 5878 5878 5878 5877 5877 5877 5876 5876 5875 5875 5874 5874 5874 5873 5873 5873 5872 5872 5872 5872 5872 5873 5872 5872 5872 5872 5872 5873 5873 5873 5873 5873 5873 5874 5874 5875 5875 5876 5878 5878 5879 5880 5881 5882 5883 5884 5885 5886 5888 5892 5893 5892 5893 5895 5896 5900 5904 5906 5906 5905 5905 5905 5905 5905 5902 5903 5904 5903 5904 5902 5902 5902 5900 5900 5902 5902 5903 5904 5904 5904 5904 5904 5905 5906
5876 5876 5876 5876 5876 5876 5875 5875 5875 5874 5874 5873 5873 5873 5872 5872 5872 5872 5871 5871 5871 5870 5870 5870 5871 5871 5871 5870 5871 5871 5870 5871 5872 5872 5872 5872 5872 5872 5873 5873 5874 5875 5876 5877 5877 5878 5879 5880 5881 5882 5883 5885 5888 5890 5889 5889 5891 5893 5893 5896 5900 5901 5902 5903 5904 5904 5905 5904 5901 5902 5903 5904 5904 5902 5901 5902 5901 5900 5902 5902 5902 5903 5904 5904 5904 5904 5905 5906
5873 5873 5873 5873 5873 5873 5873 5872 5872 5872 5872 5871 5871 5870 5870 5870 5870 5870 5869 5869 5869 5869 5868 5868 5869 5870 5870 5868 5869 5870 5870 5870 5870 5871 5871 5871 5871 5871 5871 5872 5872 5873 5874 5875 5876 5877 5877 5878 5879 5880 5882 5884 5887 5888 5888 5888 5890 5892 5891 5892 5896 5899 5901 5903 5902 5903 5905 5903 5900 5901 5903 5903 5905 5903 5900 5902 5901 5900 5901 5902 5902 5902 5903 5904 5904 5904 5905 5906
5871 5871 5870 5870 5870 5870 5870 5870 5869 5869 5869 5869 5868 5868 5868 5868 5867 5867 5867 5867 5867 5867 5866 5867 5867 5868 5868 5867 5867 5868 5869 5868 5868 5869 5869 5870 5870 5870 5870 5870 5871 5872 5872 5873 5874 5875 5875 5876 5877 5879 5881 5882 5884 5886 5887 5887 5889 5891 5891 5892 5895 5898 5902 5903 5902 5904 5905 5902 5900 5900 5902 5903 5904 5904 5900 5901 5902 5900 5901 5902 5902 5902 5903 5903 5904 5905 5906 5906
5868 5868 5867 5867 5867 5867 5867 5867 5866 5866 5866 5866 5866 5865 5865 5865 5865 5864 5865 5865 5865 5864 5864 5865 5865 5865 5866 5866 5865 5865 5867 5867 5866 5867 5868 5868 5868 5869 5869 5869 5869 5870 5870 5871 5871 5872 5873 5874 5876 5877 5879 5880 5882 5884 5884 5885 5887 5890 5892 5894 5894 5896 5900 5902 5903 5904 5903 5901 5900 5900 5902 5902 5903 5903 5900 5900 5902 5900 5900 5901 5902 5903 5903 5903 5904 5905 5906 5907
5866 5865 5865 5865 5864 5864 5864 5864 5863 5863 5862 5862 5863 5862 5862 5863 5862 5862 5862 5863 5862 5861 5861 5862 5864 5863 5863 5865 5864 5863 5864 5865 5864 5864 5866 5866 5867 5867 5867 5868 5868 5868 5869 5869 5870 5870 5871 5872 5873 5875 5876 5878 5880 5881 5881 5884 5888 5889 5892 5894 5894 5894 5896 5901 5903 5903 5902 5900 5900 5900 5902 5902 5902 5902 5900 5899 5901 5900 5900 5901 5902 5903 5903 5903 5904 5905 5905 5907
5863 5863 5862 5861 5861 5861 5861 5861 5860 5860 5860 5859 5859 5859 5859 5860 5859 5859 5860 5860 5859 5859 5859 5860 5861 5861 5860 5862 5863 5862 5862 5863 5862 5862 5863 5864 5865 5865 5865 5866 5866 5866 5867 5867 5868 5869 5869 5870 5870 5872 5875 5877 5878 5879 5882 5885 5888 5889 5890 5892 5893 5894 5896 5899 5903 5904 5902 5900 5900 5900 5902 5902 5902 5902 5899 5898 5900 5900 5900 5900 5902 5903 5904 5903 5904 5905 5905 5906
5861 5860 5859 5858 5858 5858 5858 5858 5857 5857 5857 5856 5856 5856 5856 5857 5856 5856 5858 5857 5856 5856 5856 5857 5859 5859 5857 5858 5860 5860 5860 5860 5860 5859 5860 5862 5862 5863 5863 5864 5864 5865 5865 5866 5866 5867 5868 5867 5868 5872 5874 5876 5877 5879 5882 5885 5887 5888 5889 5890 5892 5895 5897 5900 5903 5903 5901 5901 5900 5900 5902 5902 5901 5902 5899 5897 5899 5900 5900 5900 5901 5902 5903 5903 5903 5904 5905 5906
5858 5857 5856 5855 5854 5854 5855 5855 5854 5854 5854 5853 5853 5853 5853 5854 5853 5852 5854 5855 5854 5853 5854 5854 5855 5857 5855 5854 5857 5857 5856 5858 5858 5857 5857 5859 5860 5860 5861 5861 5862 5863 5864 5864 5864 5865 5865 5865 5868 5871 5873 5874 5876 5877 5879 5882 5884 5885 5887 5889 5889 5891 5895 5899 5902 5902 5900 5901 5900 5899 5901 5900 5900 5901 5899 5896 5898 5899 5900 5899 5899 5901 5902 5903 5903 5904 5905 5905
5855 5854 5853 5852 5851 5851 5851 5851 5851 5850 5850 5850 5849 5849 5850 5850 5849 5849 5850 5852 5852 5850 5851 5852 5851 5854 5853 5850 5853 5854 5853 5855 5856 5855 5855 5856 5857 5858 5858 5859 5860 5861 5861 5861 5862 5862 5863 5864 5867 5869 5870 5871 5873 5874 5876 5878 5881 5883 5885 5886 5887 5888 5891 5896 5901 5901 5899 5899 5899 5898 5899 5899 5898 5899 5898 5895 5896 5898 5899 5899 5899 5899 5901 5902 5903 5903 5904 5905
5850 5850 5850 5849 5847 5846 5847 5847 5847 5846 5846 5846 5846 5846 5846 5846 5845 5845 5846 5849 5850 5847 5847 5849 5848 5851 5852 5850 5849 5848 5850 5852 5852 5853 5853 5853 5854 5854 5855 5857 5857 5857 5858 5859 5860 5860 5862 5864 5865 5866 5868 5868 5869 5871 5873 5875 5877 5880 5882 5884 5886 5887 5888 5892 5899 5901 5898 5896 5897 5896 5896 5896 5895 5897 5897 5895 5894 5895 5896 5897 5898 5898 5900 5901 5901 5902 5903 5904
5845 5845 5845 5845 5843 5842 5842 5843 5842 5842 5842 5842 5843 5843 5841 5841 5841 5841 5842 5843 5847 5846 5843 5844 5846 5849 5849 5846 5844 5845 5848 5849 5848 5850 5850 5850 5851 5851 5852 5854 5854 5855 5856 5857 5858 5858 5860 5862 5862 5863 5864 5866 5867 5868 5869 5871 5874 5876 5879 5882 5885 5886 5887 5889 5895 5900 5898 5895 5895 5895 5894 5893 5892 5894 5896 5895 5894 5893 5894 5895 5896 5897 5898 5899 5900 5901 5902 5903
5839 5839 5840 5840 5839 5837 5837 5837 5838 5837 5838 5839 5840 5839 5837 5837 5837 5838 5838 5838 5843 5844 5840 5839 5843 5846 5844 5842 5843 5844 5844 5844 5846 5846 5846 5847 5848 5848 5850 5850 5851 5853 5854 5855 5855 5856 5858 5859 5859 5860 5861 5863 5864 5865 5867 5869 5871 5873 5876 5880 5883 5885 5886 5888 5890 5895 5896 5893 5891 5892 5892 5891 5889 5891 5894 5895 5894 5893 5893 5893 5894 5895 5896 5897 5899 5900 5901 5902
5832 5833 5834 5834 5834 5834 5831 5831 5832 5832 5833 5835 5835 5833 5833 5834 5833 5834 5834 5833 5838 5841 5837 5837 5839 5840 5840 5840 5841 5840 5839 5842 5844 5842 5841 5845 5846 5846 5845 5846 5848 5851 5851 5852 5851 5852 5855 5857 5857 5857 5859 5860 5860 5861 5864 5866 5868 5870 5874 5878 5882 5883 5885 5887 5888 5890 5892 5891 5889 5889 5891 5891 5888 5888 5891 5892 5893 5893 5893 5892 5893 5894 5895 5896 5897 5899 5900 5901
5826 5826 5827 5828 5829 5829 5827 5825 5826 5827 5827 5829 5830 5829 5829 5829 5829 5829 5829 5828 5832 5835 5835 5836 5836 5835 5837 5836 5836 5837 5837 5839 5840 5839 5840 5841 5842 5843 5841 5842 5846 5848 5848 5847 5847 5850 5854 5854 5854 5855 5856 5857 5857 5858 5861 5864 5864 5867 5873 5877 5878 5881 5884 5884 5885 5887 5889 5891 5888 5885 5887 5889 5887 5887 5889 5889 5890 5891 5891 5891 5892 5893 5894 5895 5896 5897 5899 5900
5819 5819 5820 5821 5821 5823 5824 5820 5819 5821 5822 5823 5824 5823 5824 5824 5824 5826 5825 5823 5826 5830 5831 5833 5832 5832 5833 5832 5833 5835 5834 5835 5836 5837 5837 5836 5837 5839 5839 5840 5843 5845 5844 5842 5843 5849 5851 5851 5852 5853 5853 5854 5855 5857 5859 5860 5861 5865 5872 5874 5875 5879 5882 5883 5882 5882 5886 5888 5886 5883 5883 5884 5884 5885 5888 5888 5886 5887 5888 5890 5891 5892 5893 5894 5895 5896 5897 5899
5813 5812 5813 5814 5814 5815 5818 5816 5813 5813 5815 5817 5817 5817 5819 5819 5819 5821 5818 5818 5823 5826 5826 5827 5828 5829 5829 5828 5830 5832 5831 5831 5833 5834 5832 5832 5834 5836 5837 5838 5839 5840 5840 5838 5841 5845 5847 5849 5850 5849 5850 5852 5853 5855 5857 5857 5858 5864 5869 5870 5872 5875 5878 5881 5879 5879 5882 5882 5881 5881 5880 5879 5881 5882 5884 5885 5884 5884 5886 5888 5890 5891 5891 5892 5894 5896 5896 5897
5806 5805 5805 5807 5807 5807 5809 5810 5809 5807 5807 5809 5810 5811 5813 5813 5814 5814 5811 5813 5820 5821 5819 5821 5823 5823 5823 5824 5827 5828 5828 5828 5828 5827 5828 5830 5830 5831 5834 5834 5833 5834 5836 5835 5837 5841 5844 5846 5846 5846 5847 5850 5851 5853 5854 5854 5856 5862 5866 5867 5869 5871 5874 5877 5877 5878 5878 5874 5875 5879 5879 5878 5877 5877 5879 5882 5883 5884 5885 5885 5886 5887 5888 5890 5892 5894 5895 5897
5799 5798 5798 5799 5800 5801 5800 5800 5802 5803 5801 5800 5802 5804 5805 5807 5808 5805 5805 5811 5815 5814 5813 5815 5817 5816 5816 5819 5821 5823 5823 5824 5823 5820 5822 5826 5827 5827 5829 5829 5829 5831 5832 5832 5835 5839 5841 5841 5841 5843 5845 5847 5849 5849 5850 5852 5854 5857 5860 5863 5865 5867 5870 5871 5873 5874 5871 5867 5871 5876 5878 5877 5873 5872 5876 5879 5881 5882 5883 5883 5884 5885 5887 5888 5890 5892 5894 5895
5791 5791 5790 5790 5791 5793 5792 5791 5793 5795 5794 5793 5794 5795 5797 5799 5798 5797 5802 5808 5807 5805 5807 5809 5809 5808 5810 5812 5814 5816 5818 5819 5819 5816 5817 5821 5822 5823 5825 5826 5826 5827 5828 5830 5833 5836 5836 5837 5839 5840 5841 5843 5845 5846 5847 5848 5850 5852 5855 5859 5860 5862 5865 5865 5866 5866 5864 5865 5870 5874 5875 5873 5869 5869 5873 5877 5879 5880 5880 5881 5882 5884 5885 5886 5887 5889 5891 5893
5783 5783 5782 5781 5782 5783 5783 5783 5783 5785 5786 5786 5786 5787 5789 5789 5789 5794 5800 5801 5799 5799 5800 5802 5801 5800 5802 5804 5807 5809 5811 5814 5814 5812 5813 5815 5816 5818 5820 5822 5822 5822 5824 5827 5828 5829 5831 5833 5834 5834 5837 5840 5842 5843 5845 5845 5847 5848 5850 5853 5854 5856 5858 5858 5860 5860 5860 5863 5867 5872 5872 5869 5868 5869 5870 5874 5877 5877 5878 5879 5880 5881 5882 5884 5885 5887 5889 5890
5773 5774 5772 5771 5772 5772 5774 5774 5774 5775 5776 5777 5778 5779 5779 5779 5782 5789 5792 5791 5794 5795 5793 5794 5794 5793 5793 5796 5799 5803 5805 5808 5809 5808 5807 5808 5810 5811 5814 5817 5818 5818 5820 5822 5822 5824 5826 5828 5830 5831 5833 5837 5839 5841 5842 5844 5845 5845 5847 5849 5849 5850 5851 5852 5854 5856 5857 5861 5864 5868 5867 5864 5865 5867 5869 5873 5875 5875 5876 5876 5877 5878 5879 5882 5884 5884 5886 5887
5763 5763 5762 5761 5761 5762 5763 5764 5764 5765 5766 5767 5769 5769 5770 5773 5777 5781 5782 5783 5786 5788 5786 5786 5787 5787 5786 5786 5789 5794 5798 5801 5803 5803 5802 5802 5804 5806 5808 5812 5814 5815 5815 5817 5818 5820 5821 5823 5828 5830 5831 5833 5835 5838 5840 5841 5841 5842 5844 5845 5843 5845 5847 5849 5851 5854 5857 5860 5861 5862 5861 5861 5864 5866 5868 5871 5872 5873 5873 5872 5874 5875 5875 5878 5880 5882 5884 5884
5753 5753 5751 5750 5751 5752 5752 5753 5754 5755 5756 5756 5758 5760 5763 5767 5770 5771 5772 5774 5775 5776 5777 5778 5780 5781 5781 5781 5781 5784 5788 5792 5796 5796 5795 5797 5799 5801 5803 5806 5809 5810 5810 5812 5815 5817 5817 5820 5824 5827 5828 5828 5830 5834 5837 5836 5836 5839 5839 5838 5840 5845 5847 5849 5850 5853 5856 5856 5855 5856 5858 5860 5862 5862 5865 5868 5868 5869 5870 5870 5871 5872 5872 5873 5876 5879 5882 5882
5742 5742 5739 5737 5739 5740 5741 5743 5743 5743 5745 5745 5747 5752 5756 5758 5759 5761 5762 5764 5765 5765 5766 5770 5773 5774 5774 5776 5777 5778 5779 5781 5785 5788 5789 5791 5793 5796 5798 5801 5804 5805 5806 5808 5811 5813 5814 5815 5819 5822 5823 5825 5827 5830 5832 5832 5833 5835 5834 5837 5842 5845 5845 5847 5848 5850 5852 5849 5849 5852 5855 5857 5858 5859 5862 5864 5864 5865 5867 5868 5869 5870 5869 5869 5871 5876 5879 5880
5729 5730 5726 5722 5725 5728 5729 5731 5731 5731 5732 5733 5738 5743 5745 5746 5749 5751 5752 5753 5755 5755 5756 5760 5765 5766 5767 5770 5772 5774 5774 5773 5775 5779 5782 5783 5785 5791 5794 5795 5797 5800 5803 5804 5805 5808 5811 5811 5813 5815 5817 5821 5823 5824 5825 5826 5829 5831 5833 5836 5839 5839 5839 5841 5843 5844 5845 5844 5844 5848 5851 5853 5854 5856 5859 5861 5861 5862 5864 5866 5867 5868 5867 5866 5868 5872 5875 5878
5715 5716 5711 5707 5712 5715 5715 5716 5719 5720 5719 5722 5728 5731 5733 5736 5738 5740 5741 5743 5745 5745 5746 5751 5754 5757 5760 5762 5764 5767 5769 5769 5770 5771 5774 5776 5778 5783 5788 5790 5792 5794 5797 5800 5801 5804 5806 5806 5808 5811 5812 5815 5817 5816 5817 5820 5824 5828 5830 5831 5832 5833 5834 5835 5837 5838 5840 5840 5841 5845 5847 5847 5849 5852 5856 5858 5858 5860 5863 5864 5865 5866 5866 5864 5866 5869 5872 5876
5700 5701 5695 5693 5697 5700 5700 5701 5704 5705 5706 5711 5715 5717 5721 5724 5725 5727 5729 5730 5733 5733 5734 5738 5741 5745 5750 5753 5755 5757 5759 5763 5766 5766 5767 5769 5771 5776 5780 5783 5785 5788 5791 5794 5796 5800 5801 5800 5803 5807 5808 5808 5807 5808 5811 5816 5820 5824 5825 5825 5826 5828 5829 5831 5832 5833 5835 5836 5837 5840 5840 5841 5845 5850 5854 5856 5857 5858 5860 5862 5862 5864 5864 5863 5864 5866 5870 5873
5683 5685 5681 5677 5680 5684 5685 5686 5688 5689 5692 5697 5701 5702 5706 5709 5711 5715 5717 5717 5720 5723 5723 5725 5728 5732 5737 5740 5744 5747 5748 5751 5757 5761 5763 5764 5766 5769 5773 5776 5779 5782 5784 5785 5788 5793 5795 5795 5797 5801 5803 5802 5801 5803 5807 5810 5815 5820 5822 5822 5824 5825 5826 5826 5826 5826 5829 5831 5832 5834 5835 5838 5844 5848 5851 5854 5855 5856 5858 5859 5860 5861 5862 5862 5862 5863 5866 5870
5666 5669 5667 5661 5662 5667 5669 5670 5672 5673 5675 5682 5686 5687 5691 5695 5697 5700 5703 5703 5707 5711 5711 5713 5717 5720 5724 5729 5733 5738 5739 5740 5745 5751 5756 5760 5762 5764 5769 5773 5774 5775 5777 5778 5780 5785 5791 5792 5791 5794 5797 5799 5800 5802 5802 5803 5808 5814 5816 5819 5821 5821 5821 5821 5821 5823 5827 5828 5830 5833 5832 5834 5842 5847 5849 5852 5853 5854 5855 5856 5857 5858 5859 5860 5860 5860 5862 5865
5649 5653 5653 5645 5644 5650 5652 5653 5657 5656 5659 5666 5670 5671 5675 5679 5681 5685 5688 5690 5694 5697 5697 5700 5706 5709 5712 5717 5721 5726 5731 5732 5734 5739 5744 5751 5757 5761 5766 5770 5771 5771 5771 5773 5775 5777 5780 5785 5785 5787 5792 5797 5799 5800 5799 5799 5801 5804 5807 5812 5815 5815 5815 5818 5820 5824 5826 5826 5828 5829 5828 5829 5837 5844 5847 5849 5851 5852 5851 5851 5853 5855 5855 5856 5857 5857 5857 5860
5633 5637 5637 5631 5628 5633 5635 5638 5641 5640 5642 5649 5651 5654 5660 5664 5667 5671 5673 5675 5678 5681 5683 5687 5692 5695 5700 5707 5710 5714 5720 5722 5726 5731 5733 5737 5745 5753 5760 5764 5767 5769 5766 5767 5771 5772 5771 5774 5779 5782 5784 5788 5791 5793 5792 5791 5792 5794 5798 5804 5809 5811 5813 5816 5819 5821 5821 5822 5823 5824 5823 5825 5831 5839 5844 5846 5848 5850 5849 5847 5849 5852 5852 5853 5855 5854 5854 5856
5616 5620 5623 5618 5615 5618 5620 5623 5625 5624 5627 5632 5633 5638 5644 5647 5651 5653 5653 5657 5661 5662 5664 5669 5675 5680 5685 5690 5693 5700 5708 5712 5715 5721 5724 5728 5735 5742 5746 5750 5757 5763 5765 5764 5766 5768 5766 5766 5769 5772 5774 5776 5780 5782 5784 5785 5786 5789 5793 5797 5803 5808 5810 5812 5815 5815 5814 5816 5819 5819 5820 5823 5827 5832 5838 5842 5844 5846 5847 5846 5847 5849 5849 5850 5851 5852 5851 5852
5599 5603 5607 5606 5604 5606 5607 5609 5610 5610 5612 5614 5615 5621 5627 5630 5634 5637 5639 5642 5645 5646 5648 5653 5660 5664 5665 5668 5675 5685 5695 5698 5700 5708 5713 5717 5724 5728 5730 5732 5738 5746 5754 5760 5762 5762 5761 5760 5760 5763 5766 5770 5776 5781 5784 5785 5785 5785 5789 5792 5797 5802 5806 5808 5809 5808 5809 5812 5815 5815 5818 5823 5826 5828 5831 5837 5840 5842 5844 5846 5846 5846 5847 5847 5848 5849 5849 5850
5585 5588 5591 5592 5594 5596 5597 5598 5599 5598 5600 5602 5603 5609 5615 5618 5622 5628 5631 5631 5632 5635 5638 5642 5649 5651 5650 5655 5662 5670 5676 5679 5685 5692 5696 5699 5706 5715 5720 5724 5728 5729 5735 5745 5752 5755 5756 5755 5754 5756 5760 5766 5773 5779 5783 5784 5783 5783 5785 5788 5791 5795 5800 5802 5801 5803 5807 5809 5809 5812 5816 5819 5823 5827 5829 5833 5837 5839 5842 5844 5844 5844 5844 5844 5845 5846 5847 5848
5574 5577 5579 5578 5582 5587 5589 5590 5590 5590 5592 5593 5592 5597 5604 5608 5612 5617 5620 5619 5621 5625 5628 5632 5636 5638 5639 5646 5651 5654 5660 5668 5674 5679 5683 5690 5700 5709 5714 5719 5722 5723 5725 5731 5740 5747 5750 5750 5750 5753 5755 5760 5766 5772 5776 5780 5782 5783 5783 5784 5786 5788 5792 5795 5797 5800 5804 5805 5805 5810 5814 5815 5819 5824 5828 5831 5833 5836 5840 5841 5842 5842 5842 5842 5842 5843 5844 5845
5566 5569 5570 5570 5572 5577 5580 5582 5582 5582 5583 5584 5585 5588 5593 5597 5600 5605 5608 5610 5612 5616 5618 5621 5625 5626 5629 5636 5641 5644 5651 5658 5662 5667 5674 5684 5694 5701 5709 5716 5717 5718 5719 5721 5728 5738 5744 5745 5747 5750 5751 5754 5758 5763 5768 5773 5778 5780 5781 5781 5782 5784 5786 5789 5793 5796 5799 5800 5803 5808 5811 5812 5814 5818 5823 5828 5830 5832 5836 5837 5838 5839 5840 5840 5839 5840 5841 5842
5560 5562 5564 5564 5565 5569 5571 5573 5574 5574 5575 5577 5578 5580 5583 5586 5590 5595 5598 5598 5600 5605 5606 5607 5612 5615 5618 5626 5631 5635 5641 5645 5649 5655 5664 5674 5685 5694 5704 5711 5712 5711 5713 5714 5718 5725 5732 5737 5741 5745 5747 5747 5750 5755 5760 5765 5769 5772 5775 5777 5779 5780 5781 5784 5787 5791 5794 5796 5799 5803 5805 5807 5810 5814 5818 5823 5825 5828 5831 5831 5832 5833 5834 5836 5836 5836 5837 5839
5557 5557 5558 5558 5560 5562 5563 5564 5566 5567 5569 5571 5571 5572 5575 5579 5582 5585 5587 5586 5588 5594 5595 5594 5599 5605 5609 5615 5620 5624 5630 5634 5637 5645 5653 5664 5675 5684 5694 5701 5702 5703 5706 5709 5711 5715 5721 5728 5733 5737 5739 5741 5745 5750 5754 5758 5763 5764 5766 5770 5773 5776 5779 5781 5783 5785 5788 5791 5794 5796 5798 5801 5806 5810 5814 5817 5820 5823 5825 5826 5827 5827 5827 5828 5831 5833 5835 5836
5554 5554 5553 5554 5556 5558 5557 5558 5560 5561 5564 5566 5567 5568 5570 5572 5575 5576 5577 5578 5581 5586 5587 5588 5594 5601 5604 5608 5611 5615 5621 5625 5628 5636 5645 5655 5665 5674 5685 5693 5693 5694 5699 5701 5704 5707 5711 5718 5724 5729 5732 5735 5740 5744 5748 5754 5756 5753 5754 5762 5769 5774 5777 5779 5780 5781 5782 5785 5789 5791 5793 5797 5802 5805 5808 5812 5815 5817 5820 5822 5823 5824 5824 5824 5826 5829 5831 5833